NOAA 16 DEB, 42409

Orbit data source: Space-Track

NOAA 16 DEB, 42409 is space debris in SSO originally from a launch on Thu, 21 Sep 2000 UTC launched from the Air Force Western Test Range (AFWTR). Debris objects in space refer to the collection of defunct objects orbiting the Earth. Examples of debris include non-operational satellites, rocket bodies, and fragments generated from explosions, collisions, or faulty payload assembly.

Loading next visibility...
Identifier
42409, 2000-055TD
Orbit
SSO
Country
Flag of USUS
Related business
Manufacturer
Unknown
Mission
Spacecraft
Bus & Motor
Unknown
Mass
Unknown
Launch date (UTC)
2000-09-21 (25 years ago)
Launch vehicle
Unknown
Launch site
Air Force Western Test Range (AFWTR)
Object type
Payload
Rocket body
Debris
Shape & HBR
Unknown shape, 0.1 m
Radar Cross Section
Small (<0.1 m²)

Expand to show TLE details & history
Last TLE update: 1 day ago

TLE from 1 day ago
0 NOAA 16 DEB
1 42409U 00055TD  25300.86295630  .00028352  00000-0  51070-2 0  9993
2 42409  98.7739  84.5772 0026260 304.7909  55.0821 14.66267749501127
Epoch: 2025-10-27T20:42Z
TLE epoch observation values (Epoch: 2025-10-27T20:42:39.424Z)
Latitude
-0.00008°
Longitude
97.45424°
Altitude
665.415 km
Speed
7.53 km/s
True Right ascension
05h 38m 18s
True Declination
0° 00' 00"
Sunlit
Object was in full shadow at epoch
Visualization orbit readout
Latitude
Unknown
Longitude
Unknown
Altitude
Unknown
Speed
Unknown
Apparent Right ascension
Unknown
Apparent Declination
Unknown
Sunlit
N/A
Visualization observer readout
Local Sidereal Time
18:15:06
Azimuth
Unknown
Elevation
Unknown
Doppler factor
Unknown
Orbital elements
Apogee altitude
688.617 km
Perigee altitude
651.6 km
Semi-major axis
7,048.245 km
Eccentricity
0.00263
Inclination
98.7739°
RAAN
84.5772°
Arg. of periapsis
304.7909°
True anomaly
55.32931°
Mean anomaly
55.0821°
Eccentric anomaly
55.20566°
Mean motion
3.66794 °/min
Orbital period
98.15 mins
BSTAR
0.005107
Loading maneuver chart data...
Computing Atmospheric mass density...
Loading historical data...
Loading historical data...
Loading historical data...
Loading historical data...
Loading historical data...
Loading historical data...
Loading historical data...

Documentation

Showing up to 5 results
|